Regional Weather Roundup
Issued by NWS Green Bay, WI

Home | Current Version | Previous Version | Text Only | Print | Product List | Glossary On
Versions: 1 2 3 4 5 6 7 8 9 10 11 12 13 14 15 16 17 18 19 20 21 22 23 24 25 26 27 28 29 30 31 32 33 34 35 36 37 38 39 40 41 42 43 44 45 46 47 48 49 50
000
ASUS43 KGRB 171311
RWRGRB

NORTH-CENTRAL AND NORTHEAST WISCONSIN REGIONAL WEATHER ROUNDUP
NATIONAL WEATHER SERVICE GREEN BAY WI
700 AM CST SAT FEB 17 2018

WIZ005-009-010>012-018-019-171400-
NORTH CENTRAL WISCONSIN

CITY           SKY/WX    TMP DP  RH WIND       PRES   REMARKS
IRONWOOD       FLURRIES  16  10  77 SW12      29.79S WCI   3
MANITOWISH WTR FAIR      13   6  72 SW7       29.79S WCI   3
ARBOR VITAE    FAIR      13   6  73 SW7       29.81S WCI   3
EAGLE RIVER    FAIR      12   3  66 SW6       29.80F WCI   2
LAND O LAKES   FAIR      12   4  70 S6        29.79F WCI   3
RHINELANDER    FAIR      12   4  70 SW14      29.84S WCI  -3
PHILLIPS       FAIR      14   6  69 SW8       29.82S WCI   3
ANTIGO         MOCLDY    12   4  69 SW10      29.88S WCI  -1
TOMAHAWK       FAIR      10   3  75 S3        29.86S
MERRILL        MOCLDY    15   5  64 SW8       29.89S WCI   4
$$

WIZ013-073-171400-
NORTHEAST WISCONSIN

CITY           SKY/WX    TMP DP  RH WIND       PRES   REMARKS
IRON MOUNTAIN  FAIR      13   2  61 S8        29.84F WCI   2
MARINETTE      FAIR      17   5  59 SW9       29.97F WCI   6
OCONTO         FAIR      18   4  54 SW7       29.98F WCI   9
$$

WIZ017-030-035>037-045-171400-
CENTRAL WISCONSIN

CITY           SKY/WX    TMP DP  RH WIND       PRES   REMARKS
MEDFORD        CLOUDY    12   4  69 S9        29.86F WCI   0
WAUSAU         FAIR      14   4  64 CALM      29.89F
MOSINEE        CLOUDY    16   7  67 S10       29.92S WCI   3
MARSHFIELD     FAIR      15   6  67 S8        29.89F WCI   4
WISC RAPIDS    MOCLDY    19   5  54 SW12      29.95F WCI   7
STEVENS POINT  FAIR      16   6  64 SW10      29.94F WCI   3
WAUPACA        FAIR      20   7  56 S10       29.99R WCI   9
SHAWANO        FAIR      19   6  59 S6        29.96S
CLINTONVILLE   FAIR      18   6  60 S8        29.96F WCI   7
WAUTOMA        CLOUDY    18   8  65 S8        30.00S WCI   8
$$

WIZ038-039-048-051-171400-
FOX VALLEY

CITY           SKY/WX    TMP DP  RH WIND       PRES   REMARKS
NWS GREEN BAY  FAIR      18   6  59 S13       30.00F WCI   5
APPLETON       MOCLDY    18   3  53 S14       29.98F WCI   4
OSHKOSH        FAIR      18   7  62 S12       30.00F WCI   5
FOND DU LAC    FAIR      19   4  51 SW13      30.03R WCI   6
$$

WIZ022-050-052-171400-
EAST CENTRAL WISCONSIN

CITY           SKY/WX    TMP DP  RH WIND       PRES   REMARKS
EPHRAIM        FAIR      19  -2  39 SW8G16    29.95S WCI   9
WASHINGTON ISL FAIR      17   3  53 SW9       29.95F WCI   6
STURGEON BAY   FAIR      20   4  50 S13       29.98F WCI   7
MANITOWOC      FAIR      20   4  50 SW8       30.04S
SHEBOYGAN      FAIR      19   5  54 SW12      30.03F WCI   7
$$

LMZ563-521-522-541>543-171400-
LAKESHORE

STATION/POSITION TIME  TEMP    WIND        PRES    VSBY  WAVE
                       AIR SEA DIR/SP/G                  HT/PER
                 (UTC) (F)     (DEG/KT/KT) (MB)    (MI)  (FT/S)
SHEBOYGAN LKSHOR 1300   21     200/ 15/ 17 1018.2F
KEWAUNEE LKSHORE 1242   20     210/  7/  9 1015.5F
NORTHPORT PIER   1240   18                 1014.9R
MENOMINEE LKSHOR 1242   17     200/ 13/ 18 1014.4F
$$




USA.gov is the U.S. government's official web portal to all federal, state and local government web resources and services.